Regional Weather Roundup
Issued by NWS

Home | Current Version | Previous Version | Graphics & Text | Print | Product List | Glossary On
Versions: 1 2 3 4 5 6 7 8 9 10 11 12 13 14 15 16 17 18 19 20 21 22 23 24 25 26 27 28 29 30 31 32 33 34 35 36 37 38 39 40 41 42 43 44 45 46 47 48 49 50
000
ASUS43 KMPX 031001
RWRMN
WEATHER ROUNDUP FOR MINNESOTA
NATIONAL WEATHER SERVICE TWIN CITIES/CHANHASSEN MN
400 AM CST TUE MAR 03 2015


NOTE: "FAIR" INDICATES FEW OR NO CLOUDS BELOW 12,000 FEET WITH NO
SIGNIFICANT WEATHER AND/OR OBSTRUCTIONS TO VISIBILITY. N/A MEANS
CURRENT SKY AND/OR WEATHER CONDITIONS ARE NOT AVAILABLE.

MNZ060>063-068>070-031100-
   Twin Cities Metro

CITY           SKY/WX    TMP DP  RH WIND       PRES   REMARKS
TWIN CITIES    CLOUDY    22  12  65 SE9       29.83F WCI  12
ST PAUL        CLOUDY    22  12  65 SE14      29.85F WCI   9
CRYSTAL        CLOUDY    24  13  62 SE10      29.82F WCI  14
BLAINE         CLOUDY    25  14  63 SE8       29.83F WCI  16
LAKEVILLE      CLOUDY    19  16  86 SE7       29.84F WCI  10
EDEN PRAIRIE   CLOUDY    22  13  68 SE10      29.81F WCI  11
SOUTH ST PAUL  CLOUDY    23  13  65 SE3       29.85F
LAKE ELMO      CLOUDY    23  14  68 SE8       29.85F WCI  14
$$
MNZ001>005-007-008-013>017-022>024-027-028-031100-
   Northwest Minnesota

CITY           SKY/WX    TMP DP  RH WIND       PRES   REMARKS
BEMIDJI        CLOUDY    24  19  81 SW12G18   29.69R WCI  13
HALLOCK        CLOUDY    19  14  79 N22G29    29.74S WCI   3
ROSEAU         CLOUDY    25  18  74 W15       29.67R WCI  12
WARROAD        CLOUDY    25  19  80 W13G22    29.66R WCI  13
THIEF RVR FALL CLOUDY    25  19  80 W13       29.70F WCI  13
CROOKSTON      CLOUDY    23  18  80 NW14      29.75R WCI  11
FOSSTON        CLOUDY    25  19  80 SW15      29.70F WCI  12
DETROIT LAKES  LGT SNOW  27  23  86 SW7       29.72S WCI  19
MOORHEAD       CLOUDY    27  25  93 SW8       29.74F WCI  18
PARK RAPIDS    CLOUDY    24  18  77 S14G20    29.71F WCI  12
MAHNOMEN       CLOUDY    26  21  81 SW17      29.72R WCI  13
$$
MNZ006-009>011-018-025>026-031100-
   North Central Minnesota

CITY           SKY/WX    TMP DP  RH WIND       PRES   REMARKS
BAUDETTE       CLOUDY    23  16  74 SW9       29.65S WCI  13
FLAG ISLAND    CLOUDY    25  18  74 SW15      29.62S WCI  12
INTL FALLS     CLOUDY    23  12  62 S7        29.66F WCI  15
WASKISH        CLOUDY    27  19  74 S8        29.68R WCI  18
BIG FORK       CLOUDY    23  14  68 S10G18    29.69F WCI  12
LONGVILLE      FLURRIES  21  16  79 S9        29.74F WCI  11
GRAND RAPIDS   CLOUDY    19  16  86 S13       29.72F WCI   7
CRANE LAKE     CLOUDY    21  10  63 S6        29.72F WCI  14
ORR            CLOUDY    21   9  58 S13G20    29.67F WCI   9
COOK           CLOUDY    21  10  63 S8        29.71F WCI  12
WALKER         CLOUDY    23  17  78 S9        29.70F WCI  13
$$
MNZ012-019>021-037-031100-
   Northeast Minnesota

CITY           SKY/WX    TMP DP  RH WIND       PRES   REMARKS
DULUTH         LGT SNOW  19  13  77 S14       29.77F WCI   6
ELY            CLOUDY    21   7  53 S15G21    29.72F WCI   8
HIBBING        LGT SNOW  20   9  62 S8        29.74F WCI  10
EVELETH        FLURRIES  21  10  63 S12       29.76F WCI   9
DULUTH HARBOR  LGT SNOW  23  18  80 S10       29.85F WCI  12
TWO HARBORS    LGT SNOW  25  12  58 SW7       29.79F WCI  17
SILVER BAY     CLOUDY    23   9  54 S9        29.79F WCI  13
GRAND MARAIS     N/A     26  16  65 SW16      29.85F WCI  14
G MARAIS ARPRT CLOUDY    18   9  68 S8        29.76F WCI   7
$$
MNZ029>031-032-039>041-046>048-054>057-064-031100-
   West Central Minnesota

CITY           SKY/WX    TMP DP  RH WIND       PRES   REMARKS
FERGUS FALLS   LGT SNOW  25  21  86 S12       29.76F WCI  14
WHEATON        LGT SNOW  23  21  93 SE14      29.73F VSB 3/4 WCI  11
MORRIS         LGT SNOW  23  21  93 S14       29.73F VSB 3/4 WCI  11
ALEXANDRIA     SNOW      22  20  92 S14       29.74F VSB 1/2 WCI   9
ELBOW LAKE     LGT SNOW  23  22  96 S21       29.72F VSB 3/4 WCI   7
WADENA         LGT SNOW  21  19  93 S10       29.72F WCI  10
GLENWOOD       LGT SNOW  21  19  93 S15       29.75F WCI   8
APPLETON       CLOUDY    25  21  86 SE10      29.74F WCI  15
BENSON         LGT SNOW  23  19  86 S8        29.75F WCI  14
ORTONVILLE     LGT SNOW  25  21  86 SE7       29.72F WCI  17
MADISON        CLOUDY    27  21  80 SE12      29.73F WCI  16
WILLMAR        MOCLDY    23  18  80 SE7       29.78F WCI  15
$$
MNZ033>034-036-042>043-049>051-058-059-031100-
   Central Minnesota

CITY           SKY/WX    TMP DP  RH WIND       PRES   REMARKS
ST CLOUD       CLOUDY    21  14  74 S8        29.79F WCI  11
SAUK CENTRE    LGT SNOW  21  18  89 S13       29.77F WCI   8
PAYNESVILLE    LGT SNOW  19  16  86 E9        29.78F WCI   8
AITKIN         LGT SNOW  21  18  86 S10       29.76F WCI  10
PINE RIVER     LGT SNOW  19  18  93 S7        29.78F WCI  10
BRAINERD       LGT SNOW  20  17  88 S12       29.77F VSB 3/4 WCI   8
STAPLES        LGT SNOW  19  19 100 S14       29.74F VSB 1   WCI   6
LITTLE FALLS   LGT SNOW  21  18  86 S8        29.79F WCI  12
LITCHFIELD     CLOUDY    23  16  74 SE6       29.78F WCI  16
BUFFALO        CLOUDY    23  13  67 SE7       29.81F WCI  14
MAPLE LAKE     CLOUDY    24  17  74 SE6       29.81F WCI  16
$$
MNZ037-044-045-052-053-031100-
   East Central Minnesota

CITY           SKY/WX    TMP DP  RH WIND       PRES   REMARKS
PRINCETON      CLOUDY    23  14  68 SE6       29.81F WCI  16
MORA           MOCLDY    19  14  79 S7        29.83F WCI  10
CAMBRIDGE      CLOUDY    23  12  63 SE3       29.82F
RUSH CITY      CLOUDY    20  14  76 SE8       29.84F WCI  10
MOOSE LAKE     LGT SNOW  21  18  86 CALM      29.79F
HINCKLEY       CLOUDY    21  18  86 S8        29.82F WCI  12
CLOQUET        LGT SNOW  19  16  86 S6        29.78F WCI  11
MCGREGOR       CLOUDY    21  19  93 S8        29.77F WCI  12
$$
MNZ071>073-080-081-089-090-097-098-031100-
   Southwest Minnesota

CITY           SKY/WX    TMP DP  RH WIND       PRES   REMARKS
MONTEVIDEO     CLOUDY    25  19  80 S7        29.76F WCI  17
GRANITE FALLS  CLOUDY    23  19  86 SE10      29.76F WCI  12
CANBY          CLOUDY    28  21  76 S3        29.72F
MARSHALL       CLOUDY    25  18  74 S10       29.73F WCI  15
REDWOOD FALLS  CLOUDY    23  18  81 SE12      29.77F WCI  12
OLIVIA         PTCLDY    21  18  86 SE12      29.76F WCI   9
PIPESTONE      CLOUDY    25  19  80 S7        29.68F WCI  17
WINDOM         CLOUDY    23  19  86 SE8       29.73F WCI  14
WORTHINGTON    CLOUDY    23  18  80 SE8       29.72F WCI  14
JACKSON        CLOUDY    25  21  86 SE8       29.74F WCI  16
TRACY          CLOUDY    25  21  84 S9        29.73F WCI  15
SLAYTON        CLOUDY    22  19  86 CALM      29.71F
$$
MNZ065>067-074>077-082>085-091>093-031100-
   South Central Minnesota

CITY           SKY/WX    TMP DP  RH WIND       PRES   REMARKS
MANKATO        CLOUDY    23  16  74 SE12      29.79F WCI  12
NEW ULM        CLOUDY    21  16  79 SE9       29.78F WCI  11
ST JAMES       CLOUDY    25  19  80 SE9       29.78F WCI  15
FAIRMONT       CLOUDY    25  18  74 SE13      29.75F WCI  13
GLENCOE        CLOUDY    24  18  80 SE8       29.79F WCI  14
FARIBAULT      CLOUDY    23  18  80 SE9       29.81F WCI  13
OWATONNA       CLOUDY    23  18  80 SE13      29.80F WCI  11
WASECA         CLOUDY    21  16  79 SE13      29.82F WCI   9
ALBERT LEA     CLOUDY    23  19  86 SE12      29.79F WCI  12
$$
MNZ078>079-086>088-094>096-031100-
   Southeast Minnesota

CITY           SKY/WX    TMP DP  RH WIND       PRES   REMARKS
ROCHESTER      CLOUDY    21  16  81 SE15      29.82F WCI   8
RED WING       CLOUDY    25  12  58 SE7       29.86F WCI  17
STANTON        CLOUDY    25  15  68 SE7       29.82F WCI  17
DODGE CENTER   CLOUDY    21  18  86 SE14      29.80F WCI   8
WINONA         CLOUDY    27  19  74 SE8       29.90F WCI  18
AUSTIN         CLOUDY    21  18  86 SE7       29.81F WCI  13
PRESTON        CLOUDY    21  17  83 SE8       29.84F WCI  12
$$
ABBREVIATIONS USED IN REMARKS
   TC - TEMPERATURES IN CELSIUS
  WCI - WIND CHILL INDEX
   HX - HEAT INDEX
  VSB - VISIBILITY
$$



USA.gov is the U.S. government's official web portal to all federal, state and local government web resources and services.